Powrót do katalogu

USA 259

AktywnyMilitariaHEO
NORAD 40344·PAYLOAD·🇺🇸 United States

Wystrzelony Dec 13, 2014 z Vandenberg Space Force Base

Loading…

Następne Przeloty (najbliższe 24 godziny)

TLE

ŚwieżeSource: Mike McCants

Epoka: Sep 14, 2026, 17:48 UTC

1 40344U 14081A   26257.74185183  .00000202  00000-0  00000-0 0    05
2 40344  63.1235  62.3894 7105988 272.4777  15.2326  2.00612648  1394

Śledź USA 259 w czasie rzeczywistym z AllMySat

Download on the App Store